Location: 相模原市立博物館
(35.5593°N, 139.3931°E)
Time: 02:02:46
(UTC+09:00)

ISS - Visible Passes

Search period start: 15 March 2026 00:00
Search period end: 25 March 2026 00:00
Orbit: 415 x 426 km, 51.6° (Epoch: 13 March)

Date Brightness Start Highest point End Pass type
(mag) Time Alt. Az. Time Alt. Az. Time Alt. Az.
15 Mar -1.4 18:27:47 10° W 18:30:29 22° NNW 18:33:12 10° NNE visible
17 Mar -0.8 18:32:32 10° NW 18:33:25 11° NNW 18:34:19 10° N visible
24 Mar -1.2 19:31:27 10° N 19:32:49 13° NNE 19:32:49 13° NNE visible
